KJ6SML Weather Reports


time (UTC)temp
F
wind
direction
speed
knots
gust
knots
rain 1hr
in
rain 24hr
in
rain mn
in
humidity
%
barometer
mb
20260507145007 58 299 5.2 13.0 0.00 0.15 0.03 49 1008.0
20260507144516 57 292 1.7 13.0 0.00 0.15 0.03 1007.9
20260507144008 58 240 2.6 13.0 0.00 0.15 0.03 1008.0
20260507143502 57 5 6.1 13.0 0.00 0.15 0.03 1008.1
20260507143003 57 269 5.2 11.3 0.00 0.15 0.03 1008.0
20260507142504 57 237 3.5 11.3 0.00 0.15 0.03 1008.0
20260507142005 57 273 3.5 9.6 0.00 0.15 0.03 56 1008.0
20260507141508 57 300 2.6 10.4 0.00 0.15 0.03 56 1008.0
20260507141007 57 207 2.6 10.4 0.00 0.15 0.03 58 1008.2
20260507140505 56 15 0.9 8.7 0.00 0.15 0.03 62 1008.0
20260507140016 56 273 4.3 9.6 0.00 0.15 0.03 61 1008.1
20260507135508 56 292 5.2 10.4 0.00 0.15 0.03 64 1008.0
20260507135009 54 26 2.6 10.4 0.00 0.15 0.03 65 1008.0
20260507134528 54 283 5.2 9.6 0.00 0.15 0.03 65 1007.9
20260507134007 54 319 2.6 11.3 0.00 0.15 0.03 67 1008.0
20260507133510 54 301 2.6 11.3 0.00 0.15 0.03 68 1008.0
20260507133022 54 173 2.6 10.4 0.00 0.15 0.03 68 1008.0
20260507132512 53 313 0.9 10.4 0.00 0.15 0.03 67 1008.1
20260507132003 54 281 6.1 10.4 0.00 0.15 0.03 68 1008.1
20260507131516 53 309 3.5 7.8 0.00 0.15 0.03 69 1008.1
20260507131004 53 295 3.5 7.8 0.00 0.15 0.03 70 1008.1
20260507130508 53 327 1.7 11.3 0.00 0.15 0.03 69 1008.1
20260507130009 53 244 5.2 11.3 0.00 0.15 0.03 69 1008.1
20260507125505 53 268 1.7 7.0 0.00 0.15 0.03 71 1008.1
20260507125012 53 267 3.5 7.0 0.00 0.15 0.03 72 1008.1
20260507124515 52 258 2.6 7.8 0.00 0.15 0.03 72 1008.1
20260507124005 52 292 2.6 7.8 0.00 0.15 0.03 71 1008.3
20260507123506 51 278 1.7 8.7 0.00 0.15 0.03 73 1008.2
20260507123021 51 326 0.9 8.7 0.00 0.15 0.03 74 1008.2
20260507122511 51 302 3.5 8.7 0.00 0.15 0.03 74 1008.2
20260507122012 51 30 1.7 7.0 0.00 0.15 0.03 76 1008.2
20260507121522 51 42 2.6 7.0 0.00 0.15 0.03 76 1008.3
20260507121008 51 272 3.5 7.8 0.00 0.15 0.03 79 1008.3
20260507120507 50 323 0.9 7.8 0.00 0.15 0.03 80 1008.3
20260507120008 50 311 0.9 7.0 0.00 0.15 0.03 81 1008.3
20260507115504 49 316 2.6 7.0 0.00 0.15 0.03 83 1008.3
20260507115007 49 278 2.6 6.1 0.00 0.15 0.03 84 1008.1
20260507114520 49 24 1.7 3.5 0.00 0.15 0.03 85 1008.2
20260507114006 48 279 0.9 6.1 0.00 0.15 0.03 85 1008.3
20260507113507 49 298 1.7 7.8 0.00 0.15 0.03 86 1008.2
20260507113016 48 284 3.5 7.8 0.00 0.15 0.03 86 1008.3
20260507112507 48 250 2.6 5.2 0.00 0.15 0.03 87 1008.1
20260507112009 48 284 1.7 5.2 0.00 0.15 0.03 88 1008.0
20260507111523 48 301 2.6 5.2 0.00 0.15 0.03 88 1008.1
20260507111008 48 291 1.7 4.3 0.00 0.15 0.03 89 1008.1
20260507110508 48 296 1.7 1.7 0.00 0.15 0.03 89 1008.1
20260507110024 47 293 0.0 1.7 0.00 0.15 0.03 89 1008.0
20260507105507 47 293 0.0 1.7 0.00 0.15 0.03 89 1007.9
20260507105003 47 302 0.0 1.7 0.00 0.15 0.03 89 1007.7
20260507104511 47 302 0.0 1.7 0.00 0.15 0.03 88 1007.8
20260507104006 47 302 0.0 1.7 0.00 0.15 0.03 88 1007.8
20260507103507 47 302 0.0 1.7 0.00 0.15 0.03 88 1007.9
20260507103023 47 253 0.0 1.7 0.00 0.15 0.03 88 1008.0
20260507102506 47 253 0.9 1.7 0.00 0.15 0.03 88 1007.9
20260507102010 47 253 0.9 3.5 0.00 0.15 0.03 88 1007.6
20260507101522 47 271 1.7 3.5 0.00 0.15 0.03 88 1007.6
20260507101009 47 307 0.9 1.7 0.01 0.15 0.03 88 1007.4
20260507100507 47 307 0.9 1.7 0.01 0.15 0.03 88 1007.4
20260507100027 47 339 0.0 1.7 0.01 0.15 0.03 88 1007.5
20260507095507 47 290 0.0 1.7 0.01 0.15 0.03 88 1007.3
20260507095008 47 290 0.0 1.7 0.01 0.15 0.03 87 1007.3
20260507094528 47 290 0.0 1.7 0.01 0.15 0.03 87 1007.4
20260507094010 47 281 0.0 1.7 0.02 0.15 0.03 87 1007.4
20260507093503 47 278 0.0 2.6 0.02 0.15 0.03 87 1007.2
20260507093014 47 329 0.0 2.6 0.02 0.15 0.03 87 1007.2
20260507092507 47 320 0.9 4.3 0.02 0.15 0.03 87 1007.3
20260507092006 47 304 0.9 6.1 0.02 0.15 0.03 87 1007.2
20260507091519 47 289 0.0 6.1 0.02 0.15 0.03 87 1007.5
20260507091009 48 294 1.7 3.5 0.01 0.14 0.02 87 1007.6
20260507090507 48 322 0.0 4.3 0.01 0.14 0.02 86 1007.4
20260507090035 48 322 0.9 4.3 0.01 0.14 0.02 86 1007.5
20260507085508 48 303 0.0 2.6 0.01 0.14 0.02 86 1007.7
20260507084533 48 301 1.7 3.5 0.01 0.14 0.02 86 1007.9
20260507084008 48 287 0.9 7.0 0.00 0.13 0.01 87 1007.9
20260507083508 48 295 0.0 7.0 0.00 0.13 0.01 87 1007.8
20260507083026 48 276 0.9 4.3 0.00 0.13 0.01 87 1007.7
20260507082508 48 299 0.9 2.6 0.01 0.13 0.01 87 1007.6
20260507082007 48 228 0.0 1.7 0.01 0.13 0.01 87 1007.7
20260507081515 48 302 0.9 2.6 0.01 0.13 0.01 87 1007.8
20260507081006 48 248 0.9 2.6 0.01 0.13 0.01 87 1007.7
20260507080510 48 279 0.9 2.6 0.01 0.13 0.01 87 1007.6
20260507080019 48 360 0.0 1.7 0.01 0.13 0.01 86 1007.3
20260507075508 48 360 0.0 1.7 0.01 0.13 0.01 86 1007.3
20260507075010 48 360 0.0 2.6 0.01 0.13 0.01 85 1007.5
20260507074537 48 341 0.0 2.6 0.01 0.13 0.01 85 1007.7
20260507074008 48 247 0.0 1.7 0.01 0.13 0.01 84 1007.6
20260507073510 49 298 0.0 3.5 0.01 0.13 0.01 83 1007.7
20260507073025 49 339 0.9 9.6 0.01 0.13 0.01 81 1007.5
20260507072510 50 9 1.7 10.4 0.00 0.12 0.00 79 1007.4
20260507072012 50 345 0.9 10.4 0.00 0.12 0.00 78 1007.2
20260507071527 50 268 2.6 10.4 0.00 0.12 0.00 78 1007.5
20260507071008 51 279 0.9 5.2 0.00 0.12 0.00 77 1007.2
20260507070502 51 323 1.7 5.2 0.00 0.12 0.00 77 1006.9
20260507070010 51 45 1.7 7.0 0.00 0.12 0.00 77 1006.7
20260507065503 51 5 2.6 7.0 0.00 0.12 0.00 77 1006.9
20260507065003 51 314 2.6 4.3 0.00 0.12 0.00 78 1006.8
20260507064505 51 323 0.9 2.6 0.00 0.12 0.00 77 1006.7
20260507064003 51 340 0.9 3.5 0.00 0.12 0.00 77 1006.8
20260507063504 51 294 0.9 6.1 0.00 0.12 0.00 77 1006.8
20260507063007 51 308 1.7 8.7 0.00 0.12 0.00 77 1006.7
20260507062504 51 276 4.3 8.7 0.00 0.12 0.00 78 1006.8
20260507062004 52 188 0.9 3.5 0.00 0.12 0.00 80 1007.0
20260507061509 52 349 0.0 2.6 0.00 0.12 0.00 79 1007.1
20260507061007 52 278 0.9 5.2 0.00 0.12 0.00 80 1007.0
20260507060505 52 288 0.9 6.1 0.00 0.12 0.00 81 1007.0
20260507060003 52 360 2.6 6.1 0.00 0.12 0.00 82 1006.8
20260507055503 53 339 0.9 1.7 0.00 0.12 0.00 83 1006.8
20260507055003 53 283 0.9 4.3 0.00 0.12 0.00 82 1006.9
20260507054503 53 313 1.7 4.3 0.00 0.12 0.00 82 1007.1
20260507054003 53 324 1.7 4.3 0.00 0.12 0.00 82 1007.0
20260507053502 53 267 2.6 7.0 0.00 0.12 0.00 82 1007.1
20260507053006 53 290 3.5 7.0 0.00 0.12 0.00 82 1007.2
20260507052503 53 319 1.7 7.0 0.00 0.12 0.00 81 1007.2
20260507052007 53 14 3.5 7.0 0.00 0.12 0.00 81 1007.3
20260507051510 54 263 0.9 6.1 0.00 0.12 0.00 81 1007.3
20260507051003 54 293 1.7 6.1 0.00 0.12 0.00 81 1007.3
20260507050503 54 338 2.6 7.0 0.00 0.12 0.00 81 1007.1
20260507050013 54 295 1.7 8.7 0.00 0.12 0.00 82 1007.2
20260507045507 54 324 2.6 8.7 0.00 0.12 0.00 82 1007.0
20260507045006 54 306 3.5 10.4 0.00 0.12 0.00 83 1007.1
20260507044504 54 273 4.3 10.4 0.00 0.12 0.00 85 1007.0
20260507044002 55 292 5.2 9.6 0.00 0.12 0.00 86 1007.0
20260507043503 55 316 1.7 5.2 0.00 0.12 0.00 87 1007.1
20260507043005 56 299 0.0 4.3 0.00 0.12 0.00 87 1007.1
20260507042503 56 286 0.9 6.1 0.00 0.12 0.00 87 1006.9
20260507042003 56 290 1.7 7.0 0.00 0.12 0.00 87 1006.8
20260507041508 56 319 2.6 7.0 0.00 0.12 0.00 87 1006.8
20260507041003 56 308 0.9 7.8 0.00 0.12 0.00 87 1006.7
20260507040503 56 331 1.7 7.8 0.00 0.12 0.00 87 1006.8
20260507040013 56 269 3.5 6.1 0.00 0.12 0.00 87 1007.0
20260507035507 57 309 1.7 7.8 0.00 0.12 0.12 87 1007.0
20260507035006 57 288 1.7 7.8 0.00 0.12 0.12 87 1006.9
20260507034521 57 282 2.6 7.8 0.00 0.12 0.12 87 1007.0
20260507034007 57 302 1.7 7.0 0.00 0.12 0.12 88 1006.9
20260507033509 58 289 2.6 6.1 0.00 0.12 0.12 88 1006.8
20260507033003 58 340 1.7 4.3 0.00 0.12 0.12 89 1006.8
20260507032503 58 335 0.0 7.8 0.00 0.12 0.12 89 1006.6
20260507032002 58 306 0.9 7.8 0.00 0.12 0.12 90 1006.7
20260507031507 58 267 2.6 7.8 0.00 0.12 0.12 90 1006.3
20260507031003 58 252 1.7 7.0 0.00 0.12 0.12 90 1006.2
20260507030507 58 290 1.7 5.2 0.00 0.12 0.12 91 1006.4
20260507030017 58 300 1.7 5.2 0.00 0.12 0.12 91 1006.1
20260507025505 58 272 0.0 1.7 0.00 0.12 0.12 91 1006.1
20260507025005 58 272 0.0 1.7 0.00 0.12 0.12 91 1006.2
20260507024529 58 272 0.0 1.7 0.00 0.12 0.12 91 1006.2
20260507024008 58 272 0.0 1.7 0.00 0.12 0.12 91 1006.2
20260507023508 58 221 0.9 1.7 0.00 0.12 0.12 91 1006.0
20260507023018 58 338 0.0 3.5 0.00 0.12 0.12 91 1005.9
20260507022508 58 229 0.9 3.5 0.00 0.12 0.12 91 1006.0
20260507022010 58 138 0.9 3.5 0.00 0.12 0.12 91 1006.0
20260507021504 58 279 0.0 3.5 0.00 0.12 0.12 91 1006.1
20260507021007 58 321 0.9 3.5 0.00 0.12 0.12 91 1006.1
20260507020503 58 24 0.9 2.6 0.00 0.12 0.12 91 1006.0
20260507020008 58 323 0.0 3.5 0.00 0.12 0.12 91 1005.9
20260507015506 58 288 0.9 7.0 0.00 0.12 0.12 91 1005.8
20260507015003 58 223 1.7 7.0 0.00 0.12 0.12 91 1006.0
20260507014526 58 230 0.0 6.1 0.00 0.12 0.12 91 1006.0
20260507014007 58 292 1.7 6.1 0.00 0.12 0.12 91 1006.0
20260507013506 58 21 0.0 2.6 0.00 0.12 0.12 91 1006.0
20260507013016 58 48 0.0 3.5 0.00 0.12 0.12 91 1005.9
20260507012511 58 326 0.0 5.2 0.00 0.12 0.12 91 1005.8
20260507012006 58 309 0.0 5.2 0.00 0.12 0.12 91 1005.9
20260507011534 58 224 0.9 7.0 0.00 0.12 0.12 91 1005.9
20260507011011 58 275 0.0 7.0 0.00 0.12 0.12 91 1006.0
20260507010509 58 162 1.7 7.0 0.00 0.12 0.12 91 1006.0
20260507010008 58 151 0.9 3.5 0.00 0.12 0.12 91 1006.2
20260507005504 58 159 0.0 2.6 0.00 0.12 0.12 91 1006.2
20260507005003 58 163 0.0 2.6 0.00 0.12 0.12 91 1006.1
20260507004509 58 229 0.0 2.6 0.01 0.12 0.12 91 1006.2
20260507004007 58 26 0.9 2.6 0.01 0.12 0.12 91 1006.1
20260507003508 58 264 0.9 2.6 0.01 0.12 0.12 91 1006.1
20260507003018 58 29 0.9 2.6 0.01 0.12 0.12 91 1006.0
20260507002507 58 55 0.0 2.6 0.01 0.12 0.12 90 1006.0
20260507002009 58 80 0.0 2.6 0.01 0.12 0.12 90 1006.0
20260507001519 58 296 0.9 3.5 0.01 0.12 0.12 90 1006.0
20260507001008 58 119 0.0 3.5 0.01 0.12 0.12 90 1006.0
20260507000507 58 112 0.9 1.7 0.01 0.12 0.12 90 1005.9
20260507000023 58 169 0.9 3.5 0.01 0.12 0.12 90 1005.9
20260506235507 58 134 0.9 3.5 0.01 0.12 0.12 90 1005.8
20260506235010 58 190 0.9 3.5 0.02 0.12 0.12 90 1005.8
20260506234507 58 292 0.0 5.2 0.02 0.11 0.11 90 1005.8
20260506234003 58 145 0.9 6.1 0.03 0.11 0.11 90 1005.7
20260506233502 58 171 0.0 6.1 0.03 0.11 0.11 90 1005.8
20260506233011 58 88 0.9 4.3 0.04 0.11 0.11 90 1005.7
20260506232510 58 155 0.9 4.3 0.04 0.11 0.11 90 1005.7
20260506232008 58 234 0.0 1.7 0.04 0.11 0.11 90 1005.7
20260506231517 58 169 0.0 3.5 0.04 0.11 0.11 90 1005.6
20260506231009 58 193 0.9 3.5 0.04 0.11 0.11 90 1005.6
20260506230507 58 89 0.0 2.6 0.04 0.11 0.11 90 1005.6
20260506230019 58 144 0.9 1.7 0.04 0.11 0.11 90 1005.6
20260506225507 58 127 0.0 3.5 0.04 0.11 0.11 90 1005.7
20260506225008 58 184 0.9 3.5 0.03 0.10 0.10 90 1005.7
20260506224525 58 139 0.9 3.5 0.02 0.09 0.09 89 1005.8
20260506224007 58 191 0.9 3.5 0.02 0.08 0.08 89 1005.7
20260506223504 58 301 0.0 2.6 0.02 0.08 0.08 89 1005.8
20260506223006 58 225 0.0 2.6 0.01 0.07 0.07 89 1005.8
20260506222504 58 99 0.0 3.5 0.01 0.07 0.07 89 1005.9
20260506222005 58 278 1.7 7.0 0.01 0.07 0.07 89 1005.9
20260506221514 58 107 0.9 7.0 0.01 0.07 0.07 89 1005.9
20260506221007 58 202 0.0 3.5 0.01 0.07 0.07 89 1006.0
20260506220503 59 360 0.0 2.6 0.01 0.07 0.07 89 1006.1
20260506220002 59 321 0.9 2.6 0.01 0.07 0.07 89 1006.2
20260506215502 59 320 0.9 1.7 0.01 0.07 0.07 89 1006.2
20260506215002 59 140 0.0 4.3 0.01 0.07 0.07 88 1006.2
20260506214503 59 173 1.7 4.3 0.01 0.07 0.07 88 1006.2
20260506214002 59 159 0.9 2.6 0.00 0.06 0.06 88 1006.2
20260506213503 59 155 0.9 3.5 0.00 0.06 0.06 88 1006.3
20260506213003 59 53 0.9 4.3 0.00 0.06 0.06 88 1006.4
20260506211003 59 273 1.7 5.2 0.01 0.06 0.06 88 1006.5
20260506210505 59 217 0.9 3.5 0.01 0.06 0.06 88 1006.6
20260506210002 59 223 0.0 3.5 0.01 0.06 0.06 87 1006.6
20260506205503 59 301 0.9 3.5 0.01 0.06 0.06 87 1006.6
20260506205003 59 190 0.9 6.1 0.01 0.06 0.06 87 1006.8
20260506204504 59 154 0.9 6.1 0.01 0.06 0.06 87 1006.9
20260506204003 59 200 1.7 4.3 0.01 0.06 0.06 87 1006.9
20260506203502 59 250 0.9 6.1 0.01 0.06 0.06 87 1006.9
20260506203010 59 193 1.7 6.1 0.01 0.06 0.06 87 1006.9
20260506202503 59 36 0.9 7.8 0.01 0.06 0.06 87 1006.8
20260506202003 59 290 1.7 7.8 0.02 0.06 0.06 87 1006.8
20260506200008 59 236 1.7 8.7 0.03 0.05 0.05 86 1007.0
20260506195502 60 289 1.7 8.7 0.03 0.05 0.05 87 1006.9
20260506195002 60 183 1.7 5.2 0.03 0.05 0.05 86 1007.0
20260506194503 60 286 2.6 4.3 0.04 0.05 0.05 86 1007.0
20260506194004 60 172 1.7 5.2 0.04 0.05 0.05 86 1007.0
20260506193502 60 236 0.9 8.7 0.04 0.05 0.05 85 1007.0
20260506193004 60 175 1.7 8.7 0.05 0.05 0.05 85 1007.0
20260506192502 60 180 1.7 7.0 0.05 0.05 0.05 85 1007.0
20260506192002 60 224 0.9 7.0 0.04 0.04 0.04 85 1007.1
20260506191503 61 244 1.7 7.0 0.04 0.04 0.04 84 1007.1
20260506191004 61 317 2.6 7.0 0.03 0.03 0.03 84 1007.0
20260506190505 61 130 0.9 6.1 0.03 0.03 0.03 83 1006.9
20260506190004 62 205 0.0 2.6 0.02 0.02 0.02 83 1007.0
20260506185503 62 150 0.9 2.6 0.02 0.02 0.02 82 1007.0
20260506185004 62 224 0.9 2.6 0.02 0.02 0.02 81 1007.0
20260506184515 63 261 0.9 3.5 0.01 0.01 0.01 80 1007.1
20260506184002 63 291 0.9 10.4 0.01 0.01 0.01 78 1007.2
20260506183506 64 198 3.5 10.4 0.01 0.01 0.01 76 1007.3
20260506183004 64 248 1.7 7.0 0.00 0.00 0.00 76 1007.3
20260506182503 65 75 1.7 7.0 0.00 0.00 0.00 74 1007.5
20260506182003 65 295 0.9 4.3 0.00 0.00 0.00 74 1007.6
20260506181503 66 219 0.9 4.3 0.00 0.00 0.00 73 1007.5
20260506181004 67 278 0.9 7.0 0.00 0.00 0.00 71 1007.4
20260506180503 67 270 1.7 7.0 0.00 0.00 0.00 69 1007.4
20260506180006 67 326 1.7 9.6 0.00 0.00 0.00 67 1007.5
20260506175504 68 265 3.5 9.6 0.00 0.00 0.00 65 1007.5
20260506175002 68 219 3.5 8.7 0.00 0.00 0.00 63 1007.5
20260506174505 69 265 2.6 9.6 0.00 0.00 0.00 63 1007.5
20260506174002 70 211 3.5 9.6 0.00 0.00 0.00 59 1007.4
20260506173504 71 236 3.5 9.6 0.00 0.00 0.00 58 1007.3
20260506173004 71 238 2.6 7.0 0.00 0.00 0.00 57 1007.4
20260506172503 72 61 1.7 12.2 0.00 0.00 0.00 56 1007.3
20260506172003 72 183 0.9 12.2 0.00 0.00 0.00 55 1007.3
20260506171503 72 260 2.6 7.0 0.00 0.00 0.00 55 1007.3
20260506171003 72 258 0.9 8.7 0.00 0.00 0.00 55 1007.3
20260506170502 72 338 2.6 10.4 0.00 0.00 0.00 55 1007.4
20260506170009 73 109 1.7 10.4 0.00 0.00 0.00 56 1007.4
20260506165503 73 143 2.6 8.7 0.00 0.00 0.00 54 1007.3
20260506165005 73 190 4.3 9.6 0.00 0.00 0.00 54 1007.5
20260506164504 72 351 1.7 12.2 0.00 0.00 0.00 56 1007.5
20260506164002 72 360 2.6 12.2 0.00 0.00 0.00 56 1007.6
20260506162507 71 119 3.5 11.3 0.00 0.00 0.00 57 1007.9
20260506162006 71 134 2.6 10.4 0.00 0.00 0.00 57 1007.9
20260506161507 71 162 0.9 13.9 0.00 0.00 0.00 58 1008.1
20260506161007 71 104 1.7 13.9 0.00 0.00 0.00 58 1008.2
20260506160503 71 181 2.6 11.3 0.00 0.00 0.00 58 1008.1
20260506160007 71 51 1.7 7.0 0.00 0.00 0.00 60 1008.3
20260506155504 71 98 2.6 7.8 0.00 0.00 0.00 59 1008.2
20260506155003 70 302 2.6 7.8 0.00 0.00 0.00 59 1008.3
20260506154506 70 178 0.9 7.8 0.00 0.00 0.00 62 1008.5
20260506154003 69 153 1.7 7.8 0.00 0.00 0.00 61 1008.5
20260506153503 69 205 0.9 9.6 0.00 0.00 0.00 61 1008.5
20260506153009 69 24 1.7 9.6 0.00 0.00 0.00 61 1008.5
20260506152503 70 161 2.6 6.1 0.00 0.00 0.00 61 1008.7
20260506152004 70 157 2.6 7.0 0.00 0.00 0.00 60 1008.7
20260506151003 70 123 2.6 11.3 0.00 0.00 0.00 60 1009.0
20260506150505 70 296 2.6 8.7 0.00 0.00 0.00 61 1009.0
20260506150008 69 154 1.7 8.7 0.00 0.00 0.00 62 1009.1
20260506145504 70 171 3.5 8.7 0.00 0.00 0.00 63 1009.0